Time,TemperatureF,DewpointF,PressureIn,WindDirection,WindDirectionDegrees,WindSpeedMPH,WindSpeedGustMPH,Humidity,HourlyPrecipIn,Conditions,Clouds,dailyrainin,SoftwareType,DateUTC
2013-09-08 00:01:00,75.2,65.6,30.15,West,270,0.0,0.0,72,0.00,,---,0.00,VWS V14.01,2013-09-08 05:01:00,
2013-09-08 00:05:00,75.2,65.6,30.15,West,270,0.0,0.0,72,0.00,,---,0.00,VWS V14.01,2013-09-08 05:05:00,
2013-09-08 00:10:00,75.2,65.6,30.15,West,270,0.0,0.0,72,0.00,,---,0.00,VWS V14.01,2013-09-08 05:10:00,
2013-09-08 00:15:00,75.2,65.6,30.15,West,270,0.0,0.0,72,0.00,,---,0.00,VWS V14.01,2013-09-08 05:15:00,
2013-09-08 00:20:00,75.2,65.6,30.15,West,270,0.0,0.0,72,0.00,,---,0.00,VWS V14.01,2013-09-08 05:20:00,
2013-09-08 00:25:00,75.2,65.6,30.15,West,270,0.0,0.0,72,0.00,,---,0.00,VWS V14.01,2013-09-08 05:25:00,
2013-09-08 00:30:00,75.2,65.6,30.15,West,270,0.0,0.0,72,0.00,,---,0.00,VWS V14.01,2013-09-08 05:30:00,
2013-09-08 00:35:00,75.2,65.6,30.15,West,270,0.0,0.0,72,0.00,,---,0.00,VWS V14.01,2013-09-08 05:35:00,
2013-09-08 00:40:00,75.2,65.6,30.15,West,270,0.0,0.0,72,0.00,,---,0.00,VWS V14.01,2013-09-08 05:40:00,
2013-09-08 00:45:00,75.2,65.6,30.15,West,270,0.0,0.0,72,0.00,,---,0.00,VWS V14.01,2013-09-08 05:45:00,
2013-09-08 00:50:00,75.2,65.6,30.15,West,270,0.0,0.0,72,0.00,,---,0.00,VWS V14.01,2013-09-08 05:50:00,
2013-09-08 00:55:00,75.2,65.6,30.12,West,270,0.0,0.0,72,0.00,,---,0.00,VWS V14.01,2013-09-08 05:55:00,
2013-09-08 01:00:00,71.6,65.5,30.12,West,270,0.0,0.0,81,0.00,,---,0.00,VWS V14.01,2013-09-08 06:00:00,
2013-09-08 01:05:00,71.6,65.5,30.12,West,270,0.0,0.0,81,0.00,,---,0.00,VWS V14.01,2013-09-08 06:05:00,
2013-09-08 01:10:00,71.6,65.5,30.12,West,270,0.0,0.0,81,0.00,,---,0.00,VWS V14.01,2013-09-08 06:10:00,
2013-09-08 01:15:00,71.6,65.5,30.12,West,270,0.0,0.0,81,0.00,,---,0.00,VWS V14.01,2013-09-08 06:15:00,
2013-09-08 01:20:00,71.6,65.5,30.12,West,270,0.0,0.0,81,0.00,,---,0.00,VWS V14.01,2013-09-08 06:20:00,
2013-09-08 01:25:00,71.1,64.9,30.12,West,270,0.0,0.0,81,0.00,,---,0.00,VWS V14.01,2013-09-08 06:25:00,
2013-09-08 01:30:00,71.1,64.9,30.12,West,270,0.0,0.0,81,0.00,,---,0.00,VWS V14.01,2013-09-08 06:30:00,
2013-09-08 01:35:00,71.1,64.9,30.12,West,270,0.0,0.0,81,0.00,,---,0.00,VWS V14.01,2013-09-08 06:35:00,
2013-09-08 01:40:00,71.1,64.9,30.12,West,270,0.0,0.0,81,0.00,,---,0.00,VWS V14.01,2013-09-08 06:40:00,
2013-09-08 01:45:00,71.1,64.9,30.12,West,270,0.0,0.0,81,0.00,,---,0.00,VWS V14.01,2013-09-08 06:45:00,
2013-09-08 01:50:00,71.1,64.9,30.12,West,270,0.0,0.0,81,0.00,,---,0.00,VWS V14.01,2013-09-08 06:50:00,
2013-09-08 01:55:00,71.1,64.9,30.12,West,270,0.0,0.0,81,0.00,,---,0.00,VWS V14.01,2013-09-08 06:55:00,
2013-09-08 02:00:00,71.1,64.9,30.12,West,270,0.0,0.0,81,0.00,,---,0.00,VWS V14.01,2013-09-08 07:00:00,
2013-09-08 02:05:00,70.3,64.6,30.12,West,270,0.0,0.0,82,0.00,,---,0.00,VWS V14.01,2013-09-08 07:05:00,
2013-09-08 02:10:00,70.3,64.6,30.12,West,270,0.0,0.0,82,0.00,,---,0.00,VWS V14.01,2013-09-08 07:10:00,
2013-09-08 02:15:00,70.2,64.8,30.12,West,270,0.0,0.0,83,0.00,,---,0.00,VWS V14.01,2013-09-08 07:15:00,
2013-09-08 02:20:00,70.2,64.8,30.12,West,270,0.0,0.0,83,0.00,,---,0.00,VWS V14.01,2013-09-08 07:20:00,
2013-09-08 02:25:00,70.2,64.8,30.12,West,270,0.0,0.0,83,0.00,,---,0.00,VWS V14.01,2013-09-08 07:25:00,
2013-09-08 02:30:00,70.2,64.8,30.12,West,270,0.0,0.0,83,0.00,,---,0.00,VWS V14.01,2013-09-08 07:30:00,
2013-09-08 02:35:00,70.2,64.8,30.12,West,270,0.0,0.0,83,0.00,,---,0.00,VWS V14.01,2013-09-08 07:35:00,
2013-09-08 02:40:00,70.2,64.8,30.12,West,270,0.0,0.0,83,0.00,,---,0.00,VWS V14.01,2013-09-08 07:40:00,
2013-09-08 02:45:00,70.2,64.8,30.12,West,270,0.0,0.0,83,0.00,,---,0.00,VWS V14.01,2013-09-08 07:45:00,
2013-09-08 02:50:00,69.6,64.6,30.12,West,270,0.0,0.0,84,0.00,,---,0.00,VWS V14.01,2013-09-08 07:50:00,
2013-09-08 02:55:00,69.6,64.6,30.12,West,270,0.0,0.0,84,0.00,,---,0.00,VWS V14.01,2013-09-08 07:55:00,
2013-09-08 03:00:00,69.6,64.6,30.12,West,270,0.0,0.0,84,0.00,,---,0.00,VWS V14.01,2013-09-08 08:00:00,
2013-09-08 03:05:00,69.6,64.6,30.12,West,270,0.0,0.0,84,0.00,,---,0.00,VWS V14.01,2013-09-08 08:05:00,
2013-09-08 03:10:00,69.6,64.6,30.12,West,270,0.0,0.0,84,0.00,,---,0.00,VWS V14.01,2013-09-08 08:10:00,
2013-09-08 03:15:00,69.6,64.6,30.12,West,270,0.0,0.0,84,0.00,,---,0.00,VWS V14.01,2013-09-08 08:15:00,
2013-09-08 03:20:00,69.3,64.6,30.12,West,270,0.0,0.0,85,0.00,,---,0.00,VWS V14.01,2013-09-08 08:20:00,
2013-09-08 03:25:00,69.3,64.6,30.12,West,270,0.0,0.0,85,0.00,,---,0.00,VWS V14.01,2013-09-08 08:25:00,
2013-09-08 03:30:00,69.1,64.4,30.12,West,270,0.0,0.0,85,0.00,,---,0.00,VWS V14.01,2013-09-08 08:30:00,
2013-09-08 03:35:00,69.1,64.4,30.12,West,270,0.0,0.0,85,0.00,,---,0.00,VWS V14.01,2013-09-08 08:35:00,
2013-09-08 03:40:00,69.1,64.4,30.12,West,270,0.0,0.0,85,0.00,,---,0.00,VWS V14.01,2013-09-08 08:40:00,
2013-09-08 03:45:00,69.1,64.4,30.12,West,270,0.0,0.0,85,0.00,,---,0.00,VWS V14.01,2013-09-08 08:45:00,
2013-09-08 03:50:00,69.1,64.4,30.12,West,270,0.0,0.0,85,0.00,,---,0.00,VWS V14.01,2013-09-08 08:50:00,
2013-09-08 03:55:00,69.1,64.4,30.12,West,270,0.0,0.0,85,0.00,,---,0.00,VWS V14.01,2013-09-08 08:55:00,
2013-09-08 04:00:00,68.9,64.6,30.12,West,270,0.0,0.0,86,0.00,,---,0.00,VWS V14.01,2013-09-08 09:00:00,
2013-09-08 04:05:00,68.9,64.6,30.12,West,270,0.0,0.0,86,0.00,,---,0.00,VWS V14.01,2013-09-08 09:05:00,
2013-09-08 04:10:00,68.9,64.6,30.12,West,270,0.0,0.0,86,0.00,,---,0.00,VWS V14.01,2013-09-08 09:10:00,
2013-09-08 04:15:00,68.5,64.2,30.12,West,270,0.0,0.0,86,0.00,,---,0.00,VWS V14.01,2013-09-08 09:15:00,
2013-09-08 04:20:00,68.5,64.2,30.12,West,270,0.0,0.0,86,0.00,,---,0.00,VWS V14.01,2013-09-08 09:20:00,
2013-09-08 04:25:00,68.5,64.2,30.12,West,270,0.0,0.0,86,0.00,,---,0.00,VWS V14.01,2013-09-08 09:25:00,
2013-09-08 04:30:00,68.5,64.2,30.12,West,270,0.0,0.0,86,0.00,,---,0.00,VWS V14.01,2013-09-08 09:30:00,
2013-09-08 04:35:00,68.5,64.2,30.12,West,270,0.0,0.0,86,0.00,,---,0.00,VWS V14.01,2013-09-08 09:35:00,
2013-09-08 04:40:00,68.4,64.0,30.12,West,270,0.0,0.0,86,0.00,,---,0.00,VWS V14.01,2013-09-08 09:40:00,
2013-09-08 04:45:00,68.4,64.0,30.12,West,270,0.0,0.0,86,0.00,,---,0.00,VWS V14.01,2013-09-08 09:45:00,
2013-09-08 04:50:00,68.4,64.0,30.12,West,270,0.0,0.0,86,0.00,,---,0.00,VWS V14.01,2013-09-08 09:50:00,
2013-09-08 04:55:00,68.4,64.0,30.12,West,270,0.0,0.0,86,0.00,,---,0.00,VWS V14.01,2013-09-08 09:55:00,
2013-09-08 05:00:00,68.2,64.2,30.12,West,270,0.0,0.0,87,0.00,,---,0.00,VWS V14.01,2013-09-08 10:00:00,
2013-09-08 05:05:00,68.2,64.2,30.12,West,270,0.0,0.0,87,0.00,,---,0.00,VWS V14.01,2013-09-08 10:05:00,
2013-09-08 05:10:00,68.2,64.2,30.09,West,270,0.0,0.0,87,0.00,,---,0.00,VWS V14.01,2013-09-08 10:10:00,
2013-09-08 05:15:00,68.2,64.2,30.09,West,270,0.0,0.0,87,0.00,,---,0.00,VWS V14.01,2013-09-08 10:15:00,
2013-09-08 05:20:00,68.2,64.2,30.09,West,270,0.0,0.0,87,0.00,,---,0.00,VWS V14.01,2013-09-08 10:20:00,
2013-09-08 05:25:00,68.2,64.2,30.09,West,270,0.0,0.0,87,0.00,,---,0.00,VWS V14.01,2013-09-08 10:25:00,
2013-09-08 05:30:00,68.4,64.7,30.09,West,270,0.0,0.0,88,0.00,,---,0.00,VWS V14.01,2013-09-08 10:30:00,
2013-09-08 05:35:00,68.4,64.7,30.09,West,270,0.0,0.0,88,0.00,,---,0.00,VWS V14.01,2013-09-08 10:35:00,
2013-09-08 05:40:00,68.2,64.5,30.12,West,270,0.0,0.0,88,0.00,,---,0.00,VWS V14.01,2013-09-08 10:40:00,
2013-09-08 05:45:00,68.2,64.5,30.12,West,270,0.0,0.0,88,0.00,,---,0.00,VWS V14.01,2013-09-08 10:45:00,
2013-09-08 05:50:00,68.2,64.5,30.12,West,270,0.0,0.0,88,0.00,,---,0.00,VWS V14.01,2013-09-08 10:50:00,
2013-09-08 05:55:00,68.2,64.5,30.12,West,270,0.0,0.0,88,0.00,,---,0.00,VWS V14.01,2013-09-08 10:55:00,
2013-09-08 06:00:00,68.2,64.5,30.12,West,270,0.0,0.0,88,0.00,,---,0.00,VWS V14.01,2013-09-08 11:00:00,
2013-09-08 06:05:00,68.0,64.0,30.12,West,270,0.0,0.0,87,0.00,,---,0.00,VWS V14.01,2013-09-08 11:05:00,
2013-09-08 06:10:00,68.0,64.0,30.12,West,270,0.0,0.0,87,0.00,,---,0.00,VWS V14.01,2013-09-08 11:10:00,
2013-09-08 06:15:00,68.0,64.0,30.12,West,270,0.0,0.0,87,0.00,,---,0.00,VWS V14.01,2013-09-08 11:15:00,
2013-09-08 06:20:00,68.0,64.0,30.12,West,270,0.0,0.0,87,0.00,,---,0.00,VWS V14.01,2013-09-08 11:20:00,
2013-09-08 06:25:00,68.0,64.0,30.12,West,270,0.0,0.0,87,0.00,,---,0.00,VWS V14.01,2013-09-08 11:25:00,
2013-09-08 06:29:00,68.0,64.0,30.12,West,270,0.0,0.0,87,0.00,,---,0.00,VWS V14.01,2013-09-08 11:29:00,
2013-09-08 06:34:00,68.0,64.0,30.12,West,270,0.0,0.0,87,0.00,,---,0.00,VWS V14.01,2013-09-08 11:34:00,
2013-09-08 06:39:00,68.0,64.0,30.12,West,270,0.0,0.0,87,0.00,,---,0.00,VWS V14.01,2013-09-08 11:39:00,
2013-09-08 06:44:00,68.0,64.0,30.12,West,270,0.0,0.0,87,0.00,,---,0.00,VWS V14.01,2013-09-08 11:44:00,
2013-09-08 06:49:00,68.0,64.0,30.12,West,270,0.0,0.0,87,0.00,,---,0.00,VWS V14.01,2013-09-08 11:49:00,
2013-09-08 06:54:00,68.0,64.0,30.12,West,270,0.0,0.0,87,0.00,,---,0.00,VWS V14.01,2013-09-08 11:54:00,
2013-09-08 06:59:00,68.0,64.0,30.12,West,270,0.0,0.0,87,0.00,,---,0.00,VWS V14.01,2013-09-08 11:59:00,
2013-09-08 07:04:00,68.0,64.0,30.12,West,270,0.0,0.0,87,0.00,,---,0.00,VWS V14.01,2013-09-08 12:04:00,
2013-09-08 07:09:00,68.0,64.0,30.12,West,270,0.0,0.0,87,0.00,,---,0.00,VWS V14.01,2013-09-08 12:09:00,
2013-09-08 07:14:00,68.0,64.0,30.12,West,270,0.0,0.0,87,0.00,,---,0.00,VWS V14.01,2013-09-08 12:14:00,
2013-09-08 07:19:00,68.2,64.8,30.12,West,270,0.0,0.0,89,0.00,,---,0.00,VWS V14.01,2013-09-08 12:19:00,
2013-09-08 07:24:00,68.4,65.0,30.12,West,270,0.0,0.0,89,0.00,,---,0.00,VWS V14.01,2013-09-08 12:24:00,
2013-09-08 07:29:00,68.5,65.2,30.12,West,270,0.0,0.0,89,0.00,,---,0.00,VWS V14.01,2013-09-08 12:29:00,
2013-09-08 07:34:00,68.9,65.5,30.12,West,270,0.0,0.0,89,0.00,,---,0.00,VWS V14.01,2013-09-08 12:34:00,
2013-09-08 07:39:00,69.1,66.0,30.12,West,270,0.0,0.0,90,0.00,,---,0.00,VWS V14.01,2013-09-08 12:39:00,
2013-09-08 07:44:00,69.3,65.9,30.12,West,270,0.0,0.0,89,0.00,,---,0.00,VWS V14.01,2013-09-08 12:44:00,
2013-09-08 07:49:00,69.3,65.9,30.12,West,270,0.0,0.0,89,0.00,,---,0.00,VWS V14.01,2013-09-08 12:49:00,
2013-09-08 07:54:00,70.3,66.9,30.12,West,270,0.0,0.0,89,0.00,,---,0.00,VWS V14.01,2013-09-08 12:54:00,
2013-09-08 07:59:00,70.9,67.8,30.12,West,270,0.0,0.0,90,0.00,,---,0.00,VWS V14.01,2013-09-08 12:59:00,
2013-09-08 08:04:00,71.6,68.5,30.12,West,270,0.0,0.0,90,0.00,,---,0.00,VWS V14.01,2013-09-08 13:04:00,
2013-09-08 08:09:00,72.1,69.1,30.12,West,270,0.0,0.0,90,0.00,,---,0.00,VWS V14.01,2013-09-08 13:09:00,
2013-09-08 08:14:00,72.7,69.6,30.12,West,270,0.0,0.0,90,0.00,,---,0.00,VWS V14.01,2013-09-08 13:14:00,
2013-09-08 08:19:00,73.4,70.0,30.12,West,270,0.0,0.0,89,0.00,,---,0.00,VWS V14.01,2013-09-08 13:19:00,
2013-09-08 08:24:00,74.5,70.7,30.12,WNW,292,0.0,1.1,88,0.00,,---,0.00,VWS V14.01,2013-09-08 13:24:00,
2013-09-08 08:29:00,75.0,70.6,30.12,West,270,0.0,0.0,86,0.00,,---,0.00,VWS V14.01,2013-09-08 13:29:00,
2013-09-08 08:34:00,75.7,70.6,30.12,WNW,292,0.0,0.0,84,0.00,,---,0.00,VWS V14.01,2013-09-08 13:34:00,
2013-09-08 08:39:00,76.1,70.2,30.12,West,270,0.0,0.0,82,0.00,,---,0.00,VWS V14.01,2013-09-08 13:39:00,
2013-09-08 08:44:00,76.8,70.2,30.12,WSW,248,0.0,0.0,80,0.00,,---,0.00,VWS V14.01,2013-09-08 13:44:00,
2013-09-08 08:49:00,77.4,70.3,30.12,West,270,0.0,0.0,79,0.00,,---,0.00,VWS V14.01,2013-09-08 13:49:00,
2013-09-08 08:54:00,77.9,70.1,30.12,West,270,0.0,0.0,77,0.00,,---,0.00,VWS V14.01,2013-09-08 13:54:00,
2013-09-08 08:59:00,78.4,70.2,30.12,WNW,292,0.0,0.0,76,0.00,,---,0.00,VWS V14.01,2013-09-08 13:59:00,
2013-09-08 09:04:00,79.0,69.6,30.12,WNW,292,0.0,0.0,73,0.00,,---,0.00,VWS V14.01,2013-09-08 14:04:00,
2013-09-08 09:09:00,79.0,68.8,30.12,WSW,248,0.0,0.0,71,0.00,,---,0.00,VWS V14.01,2013-09-08 14:09:00,
2013-09-08 09:14:00,79.0,68.8,30.12,NNW,338,0.0,0.0,71,0.00,,---,0.00,VWS V14.01,2013-09-08 14:14:00,
2013-09-08 09:19:00,78.8,68.2,30.12,WNW,292,0.0,0.0,70,0.00,,---,0.00,VWS V14.01,2013-09-08 14:19:00,
2013-09-08 09:24:00,78.8,68.2,30.12,West,270,0.0,0.0,70,0.00,,---,0.00,VWS V14.01,2013-09-08 14:24:00,
2013-09-08 09:29:00,78.8,68.2,30.12,WNW,292,0.0,0.0,70,0.00,,---,0.00,VWS V14.01,2013-09-08 14:29:00,
2013-09-08 09:34:00,79.0,67.9,30.12,West,270,0.0,0.0,69,0.00,,---,0.00,VWS V14.01,2013-09-08 14:34:00,
2013-09-08 09:39:00,79.0,68.4,30.12,WSW,248,0.0,0.0,70,0.00,,---,0.00,VWS V14.01,2013-09-08 14:39:00,
2013-09-08 09:44:00,79.0,68.4,30.12,West,270,0.0,0.0,70,0.00,,---,0.00,VWS V14.01,2013-09-08 14:44:00,
2013-09-08 09:49:00,79.2,68.1,30.12,WSW,248,0.0,0.0,69,0.00,,---,0.00,VWS V14.01,2013-09-08 14:49:00,
2013-09-08 09:54:00,79.2,68.5,30.12,WSW,248,0.0,0.0,70,0.00,,---,0.00,VWS V14.01,2013-09-08 14:54:00,
2013-09-08 09:59:00,79.3,68.7,30.15,WSW,248,0.0,0.0,70,0.00,,---,0.00,VWS V14.01,2013-09-08 14:59:00,
2013-09-08 10:04:00,79.3,68.7,30.15,West,270,0.0,0.0,70,0.00,,---,0.00,VWS V14.01,2013-09-08 15:04:00,
2013-09-08 10:09:00,79.7,69.1,30.15,West,270,0.0,0.0,70,0.00,,---,0.00,VWS V14.01,2013-09-08 15:09:00,
2013-09-08 10:14:00,79.9,68.8,30.15,West,270,0.0,0.0,69,0.00,,---,0.00,VWS V14.01,2013-09-08 15:14:00,
2013-09-08 10:19:00,80.2,69.2,30.15,WSW,248,0.0,0.0,69,0.00,,---,0.00,VWS V14.01,2013-09-08 15:19:00,
2013-09-08 10:24:00,80.4,69.3,30.15,WSW,248,0.0,0.0,69,0.00,,---,0.00,VWS V14.01,2013-09-08 15:24:00,
2013-09-08 10:29:00,80.8,69.2,30.15,WSW,248,0.0,0.0,68,0.00,,---,0.00,VWS V14.01,2013-09-08 15:29:00,
2013-09-08 10:34:00,81.1,70.0,30.15,WSW,248,0.0,0.0,69,0.00,,---,0.00,VWS V14.01,2013-09-08 15:34:00,
2013-09-08 10:39:00,81.5,69.5,30.15,NNW,338,1.1,1.1,67,0.00,,---,0.00,VWS V14.01,2013-09-08 15:39:00,
2013-09-08 10:44:00,81.9,69.4,30.15,WSW,248,1.3,1.3,66,0.00,,---,0.00,VWS V14.01,2013-09-08 15:44:00,
2013-09-08 10:49:00,81.9,69.4,30.15,WNW,292,0.9,2.0,66,0.00,,---,0.00,VWS V14.01,2013-09-08 15:49:00,
2013-09-08 10:54:00,82.8,69.3,30.15,NW,315,1.1,1.6,64,0.00,,---,0.00,VWS V14.01,2013-09-08 15:54:00,
2013-09-08 10:59:00,83.1,69.7,30.15,WNW,292,0.0,2.0,64,0.00,,---,0.00,VWS V14.01,2013-09-08 15:59:00,
2013-09-08 11:04:00,83.7,70.2,30.15,West,270,0.0,0.0,64,0.00,,---,0.00,VWS V14.01,2013-09-08 16:04:00,
2013-09-08 11:09:00,83.5,69.1,30.15,West,270,0.0,0.0,62,0.00,,---,0.00,VWS V14.01,2013-09-08 16:09:00,
2013-09-08 11:14:00,83.5,69.1,30.15,WNW,292,0.0,0.0,62,0.00,,---,0.00,VWS V14.01,2013-09-08 16:14:00,
2013-09-08 11:19:00,83.5,69.1,30.15,WNW,292,2.9,2.9,62,0.00,,---,0.00,VWS V14.01,2013-09-08 16:19:00,
2013-09-08 11:24:00,83.5,69.1,30.15,North,0,2.9,2.9,62,0.00,,---,0.00,VWS V14.01,2013-09-08 16:24:00,
2013-09-08 11:29:00,83.5,69.1,30.15,West,270,0.0,0.0,62,0.00,,---,0.00,VWS V14.01,2013-09-08 16:29:00,
2013-09-08 11:34:00,83.5,69.1,30.15,West,270,2.7,2.7,62,0.00,,---,0.00,VWS V14.01,2013-09-08 16:34:00,
2013-09-08 11:39:00,83.5,69.1,30.15,NE,45,1.6,1.6,62,0.00,,---,0.00,VWS V14.01,2013-09-08 16:39:00,
2013-09-08 11:44:00,83.5,69.1,30.15,NNE,22,2.7,2.7,62,0.00,,---,0.00,VWS V14.01,2013-09-08 16:44:00,
2013-09-08 11:49:00,83.5,69.1,30.15,NNE,22,2.7,2.7,62,0.00,,---,0.00,VWS V14.01,2013-09-08 16:49:00,
2013-09-08 11:54:00,83.5,69.1,30.15,North,0,4.3,4.3,62,0.00,,---,0.00,VWS V14.01,2013-09-08 16:54:00,
2013-09-08 11:59:00,83.5,69.1,30.15,NE,45,2.0,2.2,62,0.00,,---,0.00,VWS V14.01,2013-09-08 16:59:00,
2013-09-08 12:04:00,83.5,69.1,30.15,ENE,68,3.8,3.8,62,0.00,,---,0.00,VWS V14.01,2013-09-08 17:04:00,
2013-09-08 12:09:00,83.5,69.1,30.15,NE,45,2.5,3.8,62,0.00,,---,0.00,VWS V14.01,2013-09-08 17:09:00,
2013-09-08 12:14:00,83.5,69.1,30.15,WSW,248,0.0,0.0,62,0.00,,---,0.00,VWS V14.01,2013-09-08 17:14:00,
2013-09-08 12:19:00,83.5,69.1,30.15,ENE,68,3.4,3.8,62,0.00,,---,0.00,VWS V14.01,2013-09-08 17:19:00,
2013-09-08 12:24:00,83.8,68.5,30.15,ESE,112,0.0,0.0,60,0.00,,---,0.00,VWS V14.01,2013-09-08 17:24:00,
2013-09-08 12:29:00,83.8,68.5,30.15,ESE,112,6.9,6.9,60,0.00,,---,0.00,VWS V14.01,2013-09-08 17:29:00,
2013-09-08 12:34:00,83.8,68.5,30.15,ESE,112,1.1,1.1,60,0.00,,---,0.00,VWS V14.01,2013-09-08 17:34:00,
2013-09-08 12:39:00,83.8,68.5,30.15,East,90,3.8,4.0,60,0.00,,---,0.00,VWS V14.01,2013-09-08 17:39:00,
2013-09-08 12:44:00,85.3,67.8,30.15,SSE,158,3.8,5.8,56,0.00,,---,0.00,VWS V14.01,2013-09-08 17:44:00,
2013-09-08 12:49:00,85.3,67.8,30.15,East,90,7.2,7.2,56,0.00,,---,0.00,VWS V14.01,2013-09-08 17:49:00,
2013-09-08 12:54:00,85.3,67.8,30.15,NNW,338,1.6,4.3,56,0.00,,---,0.00,VWS V14.01,2013-09-08 17:54:00,
2013-09-08 12:59:00,87.1,67.3,30.15,NNE,22,2.7,6.0,52,0.00,,---,0.00,VWS V14.01,2013-09-08 17:59:00,
2013-09-08 13:04:00,86.9,67.2,30.15,West,270,0.0,0.0,52,0.00,,---,0.00,VWS V14.01,2013-09-08 18:04:00,
2013-09-08 13:09:00,86.9,67.2,30.15,SSW,202,2.5,3.8,52,0.00,,---,0.00,VWS V14.01,2013-09-08 18:09:00,
2013-09-08 13:14:00,86.9,67.2,30.15,WSW,248,0.0,2.2,52,0.00,,---,0.00,VWS V14.01,2013-09-08 18:14:00,
2013-09-08 13:19:00,86.9,67.2,30.15,SW,225,1.1,1.1,52,0.00,,---,0.00,VWS V14.01,2013-09-08 18:19:00,
2013-09-08 13:24:00,86.9,67.2,30.15,NNW,338,2.0,3.1,52,0.00,,---,0.00,VWS V14.01,2013-09-08 18:24:00,
2013-09-08 13:28:00,86.9,67.2,30.15,ESE,112,1.6,3.1,52,0.00,,---,0.00,VWS V14.01,2013-09-08 18:28:00,
2013-09-08 13:33:00,86.9,67.2,30.15,WSW,248,1.1,1.3,52,0.00,,---,0.00,VWS V14.01,2013-09-08 18:33:00,
2013-09-08 13:38:00,86.9,67.2,30.15,NNE,22,1.1,4.0,52,0.00,,---,0.00,VWS V14.01,2013-09-08 18:38:00,
2013-09-08 13:43:00,86.9,67.2,30.15,NW,315,1.1,3.1,52,0.00,,---,0.00,VWS V14.01,2013-09-08 18:43:00,
2013-09-08 13:49:00,86.9,67.2,30.15,WSW,248,1.3,1.6,52,0.00,,---,0.00,VWS V14.01,2013-09-08 18:49:00,
2013-09-08 13:53:00,86.9,67.2,30.15,WSW,248,0.0,1.3,52,0.00,,---,0.00,VWS V14.01,2013-09-08 18:53:00,
2013-09-08 13:58:00,86.9,67.2,30.15,East,90,0.0,0.0,52,0.00,,---,0.00,VWS V14.01,2013-09-08 18:58:00,
2013-09-08 14:03:00,86.9,67.2,30.15,SSW,202,0.0,0.0,52,0.00,,---,0.00,VWS V14.01,2013-09-08 19:03:00,
2013-09-08 14:08:00,86.9,67.2,30.15,WSW,248,0.0,0.0,52,0.00,,---,0.00,VWS V14.01,2013-09-08 19:08:00,
2013-09-08 14:13:00,86.9,67.2,30.15,WSW,248,2.0,2.0,52,0.00,,---,0.00,VWS V14.01,2013-09-08 19:13:00,
2013-09-08 14:18:00,86.9,67.2,30.15,West,270,2.0,2.9,52,0.00,,---,0.00,VWS V14.01,2013-09-08 19:18:00,
2013-09-08 14:23:00,86.9,67.2,30.15,SW,225,3.1,3.1,52,0.00,,---,0.00,VWS V14.01,2013-09-08 19:23:00,
2013-09-08 14:28:00,86.9,67.2,30.15,ENE,68,3.4,3.4,52,0.00,,---,0.00,VWS V14.01,2013-09-08 19:28:00,
2013-09-08 14:33:00,86.9,67.2,30.15,SW,225,0.0,2.9,52,0.00,,---,0.00,VWS V14.01,2013-09-08 19:33:00,
2013-09-08 14:38:00,86.9,67.2,30.15,WSW,248,2.5,2.9,52,0.00,,---,0.00,VWS V14.01,2013-09-08 19:38:00,
2013-09-08 14:43:00,86.9,67.2,30.12,SW,225,2.7,2.7,52,0.00,,---,0.00,VWS V14.01,2013-09-08 19:43:00,
2013-09-08 14:48:00,86.9,67.2,30.12,West,270,3.1,4.0,52,0.00,,---,0.00,VWS V14.01,2013-09-08 19:48:00,
2013-09-08 14:53:00,86.9,67.2,30.12,West,270,2.9,2.9,52,0.00,,---,0.00,VWS V14.01,2013-09-08 19:53:00,
2013-09-08 14:58:00,86.9,67.2,30.12,WSW,248,3.1,3.1,52,0.00,,---,0.00,VWS V14.01,2013-09-08 19:58:00,
2013-09-08 15:03:00,86.9,67.2,30.12,West,270,3.8,3.8,52,0.00,,---,0.00,VWS V14.01,2013-09-08 20:03:00,
2013-09-08 15:08:00,86.9,67.2,30.12,WSW,248,0.0,0.9,52,0.00,,---,0.00,VWS V14.01,2013-09-08 20:08:00,
2013-09-08 15:13:00,86.9,67.2,30.12,SW,225,0.0,1.1,52,0.00,,---,0.00,VWS V14.01,2013-09-08 20:13:00,
2013-09-08 15:18:00,86.9,67.2,30.12,West,270,3.1,3.1,52,0.00,,---,0.00,VWS V14.01,2013-09-08 20:18:00,
2013-09-08 15:23:00,86.9,67.2,30.12,WNW,292,0.9,0.9,52,0.00,,---,0.00,VWS V14.01,2013-09-08 20:23:00,
2013-09-08 15:28:00,86.9,67.2,30.12,ESE,112,1.6,2.5,52,0.00,,---,0.00,VWS V14.01,2013-09-08 20:28:00,
2013-09-08 15:33:00,86.9,67.2,30.12,SW,225,2.7,2.7,52,0.00,,---,0.00,VWS V14.01,2013-09-08 20:33:00,
2013-09-08 15:38:00,86.9,67.2,30.12,WSW,248,3.6,4.0,52,0.00,,---,0.00,VWS V14.01,2013-09-08 20:38:00,
2013-09-08 15:43:00,86.9,67.2,30.12,WSW,248,0.9,1.3,52,0.00,,---,0.00,VWS V14.01,2013-09-08 20:43:00,
2013-09-08 15:48:00,86.9,67.2,30.12,SW,225,1.1,1.1,52,0.00,,---,0.00,VWS V14.01,2013-09-08 20:48:00,
2013-09-08 15:53:00,86.9,67.2,30.12,WSW,248,5.4,5.4,52,0.00,,---,0.00,VWS V14.01,2013-09-08 20:53:00,
2013-09-08 15:58:00,86.9,67.2,30.12,SSW,202,2.2,2.7,52,0.00,,---,0.00,VWS V14.01,2013-09-08 20:58:00,
2013-09-08 16:03:00,86.9,67.2,30.12,SW,225,1.1,1.1,52,0.00,,---,0.00,VWS V14.01,2013-09-08 21:03:00,
2013-09-08 16:08:00,86.9,67.2,30.12,WSW,248,0.0,1.1,52,0.00,,---,0.00,VWS V14.01,2013-09-08 21:08:00,
2013-09-08 16:13:00,86.9,67.2,30.12,WNW,292,2.9,2.9,52,0.00,,---,0.00,VWS V14.01,2013-09-08 21:13:00,
2013-09-08 16:18:00,86.9,67.2,30.12,West,270,0.0,0.0,52,0.00,,---,0.00,VWS V14.01,2013-09-08 21:18:00,
2013-09-08 16:23:00,86.9,67.2,30.12,ENE,68,2.5,2.7,52,0.00,,---,0.00,VWS V14.01,2013-09-08 21:23:00,
2013-09-08 16:28:00,86.9,67.2,30.12,WNW,292,0.0,1.6,52,0.00,,---,0.00,VWS V14.01,2013-09-08 21:28:00,
2013-09-08 16:33:00,86.9,67.2,30.12,South,180,0.0,0.0,52,0.00,,---,0.00,VWS V14.01,2013-09-08 21:33:00,
2013-09-08 16:38:00,86.9,67.2,30.12,SSW,202,0.0,0.0,52,0.00,,---,0.00,VWS V14.01,2013-09-08 21:38:00,
2013-09-08 16:43:00,86.9,67.2,30.12,SSW,202,0.0,0.0,52,0.00,,---,0.00,VWS V14.01,2013-09-08 21:43:00,
2013-09-08 16:48:00,86.9,67.2,30.12,SSW,202,0.0,0.0,52,0.00,,---,0.00,VWS V14.01,2013-09-08 21:48:00,
2013-09-08 16:53:00,86.9,67.2,30.12,WSW,248,0.0,0.0,52,0.00,,---,0.00,VWS V14.01,2013-09-08 21:53:00,
2013-09-08 16:58:00,86.9,67.2,30.12,WSW,248,0.0,0.0,52,0.00,,---,0.00,VWS V14.01,2013-09-08 21:58:00,
2013-09-08 17:03:00,86.9,67.2,30.12,WSW,248,0.0,0.0,52,0.00,,---,0.00,VWS V14.01,2013-09-08 22:03:00,
2013-09-08 17:08:00,86.9,67.2,30.12,WSW,248,0.0,0.0,52,0.00,,---,0.00,VWS V14.01,2013-09-08 22:08:00,
2013-09-08 17:13:00,86.9,67.2,30.12,WSW,248,0.0,0.0,52,0.00,,---,0.00,VWS V14.01,2013-09-08 22:13:00,
2013-09-08 17:18:00,86.9,67.2,30.12,WSW,248,0.0,0.0,52,0.00,,---,0.00,VWS V14.01,2013-09-08 22:18:00,
2013-09-08 17:23:00,86.9,67.2,30.12,WSW,248,0.0,0.0,52,0.00,,---,0.00,VWS V14.01,2013-09-08 22:23:00,
2013-09-08 17:28:00,86.9,67.2,30.12,WSW,248,0.0,0.0,52,0.00,,---,0.00,VWS V14.01,2013-09-08 22:28:00,
2013-09-08 17:33:00,86.9,67.2,30.12,WSW,248,0.0,0.0,52,0.00,,---,0.00,VWS V14.01,2013-09-08 22:33:00,
2013-09-08 17:38:00,86.9,67.2,30.12,ESE,112,0.0,0.0,52,0.00,,---,0.00,VWS V14.01,2013-09-08 22:38:00,
2013-09-08 17:43:00,86.9,67.2,30.12,West,270,0.0,0.0,52,0.00,,---,0.00,VWS V14.01,2013-09-08 22:43:00,
2013-09-08 17:48:00,86.9,67.2,30.12,WSW,248,0.0,0.0,52,0.00,,---,0.00,VWS V14.01,2013-09-08 22:48:00,
2013-09-08 17:53:00,86.9,67.2,30.12,WSW,248,0.0,0.0,52,0.00,,---,0.00,VWS V14.01,2013-09-08 22:53:00,
2013-09-08 17:58:00,86.9,67.2,30.12,WSW,248,0.0,0.0,52,0.00,,---,0.00,VWS V14.01,2013-09-08 22:58:00,
2013-09-08 18:03:00,86.9,67.2,30.12,WSW,248,0.0,0.0,52,0.00,,---,0.00,VWS V14.01,2013-09-08 23:03:00,
2013-09-08 18:08:00,86.9,67.2,30.12,East,90,0.0,0.0,52,0.00,,---,0.00,VWS V14.01,2013-09-08 23:08:00,
2013-09-08 18:13:00,86.9,67.2,30.12,ENE,68,0.0,0.0,52,0.00,,---,0.00,VWS V14.01,2013-09-08 23:13:00,
2013-09-08 18:18:00,86.9,67.2,30.12,East,90,0.0,0.0,52,0.00,,---,0.00,VWS V14.01,2013-09-08 23:18:00,
2013-09-08 18:23:00,86.9,67.2,30.12,East,90,0.0,0.0,52,0.00,,---,0.00,VWS V14.01,2013-09-08 23:23:00,
2013-09-08 18:28:00,86.9,67.2,30.12,ESE,112,0.0,0.0,52,0.00,,---,0.00,VWS V14.01,2013-09-08 23:28:00,
2013-09-08 18:33:00,86.9,67.2,30.12,ESE,112,0.0,0.0,52,0.00,,---,0.00,VWS V14.01,2013-09-08 23:33:00,
2013-09-08 18:38:00,86.9,67.2,30.12,ESE,112,0.0,0.0,52,0.00,,---,0.00,VWS V14.01,2013-09-08 23:38:00,
2013-09-08 18:43:00,86.9,67.2,30.12,ESE,112,0.0,0.0,52,0.00,,---,0.00,VWS V14.01,2013-09-08 23:43:00,
2013-09-08 18:48:00,86.9,67.2,30.12,ESE,112,0.0,0.0,52,0.00,,---,0.00,VWS V14.01,2013-09-08 23:48:00,
2013-09-08 18:53:00,86.9,67.2,30.12,ESE,112,0.0,0.0,52,0.00,,---,0.00,VWS V14.01,2013-09-08 23:53:00,
2013-09-08 18:58:00,86.9,67.2,30.12,ESE,112,0.0,0.0,52,0.00,,---,0.00,VWS V14.01,2013-09-08 23:58:00,
2013-09-08 19:03:00,86.9,67.2,30.12,ESE,112,0.0,0.0,52,0.00,,---,0.00,VWS V14.01,2013-09-09 00:03:00,
2013-09-08 19:08:00,86.9,67.2,30.12,ESE,112,0.0,0.0,52,0.00,,---,0.00,VWS V14.01,2013-09-09 00:08:00,
2013-09-08 19:13:00,86.9,67.2,30.12,ESE,112,0.0,0.0,52,0.00,,---,0.00,VWS V14.01,2013-09-09 00:13:00,
2013-09-08 19:18:00,86.9,67.2,30.12,WSW,248,0.0,0.0,52,0.00,,---,0.00,VWS V14.01,2013-09-09 00:18:00,
2013-09-08 19:23:00,86.9,67.2,30.12,WSW,248,0.0,0.0,52,0.00,,---,0.00,VWS V14.01,2013-09-09 00:23:00,
2013-09-08 19:28:00,86.9,67.2,30.12,WSW,248,0.0,0.0,52,0.00,,---,0.00,VWS V14.01,2013-09-09 00:28:00,
2013-09-08 19:33:00,86.9,67.2,30.12,WSW,248,0.0,0.0,52,0.00,,---,0.00,VWS V14.01,2013-09-09 00:33:00,
2013-09-08 19:38:00,86.9,67.2,30.12,WSW,248,0.0,0.0,52,0.00,,---,0.00,VWS V14.01,2013-09-09 00:38:00,
2013-09-08 19:43:00,86.9,67.2,30.12,WSW,248,0.0,0.0,52,0.00,,---,0.00,VWS V14.01,2013-09-09 00:43:00,
2013-09-08 19:48:00,86.9,67.2,30.12,WSW,248,0.0,0.0,52,0.00,,---,0.00,VWS V14.01,2013-09-09 00:48:00,
2013-09-08 19:53:00,86.9,67.2,30.12,WSW,248,0.0,0.0,52,0.00,,---,0.00,VWS V14.01,2013-09-09 00:53:00,
2013-09-08 19:58:00,86.9,67.2,30.12,WSW,248,0.0,0.0,52,0.00,,---,0.00,VWS V14.01,2013-09-09 00:58:00,
2013-09-08 20:03:00,86.9,67.2,30.12,WSW,248,0.0,0.0,52,0.00,,---,0.00,VWS V14.01,2013-09-09 01:03:00,
2013-09-08 20:08:00,86.9,67.2,30.12,WSW,248,0.0,0.0,52,0.00,,---,0.00,VWS V14.01,2013-09-09 01:08:00,
2013-09-08 20:13:00,86.9,67.2,30.12,WSW,248,0.0,0.0,52,0.00,,---,0.00,VWS V14.01,2013-09-09 01:13:00,
2013-09-08 20:18:00,86.9,67.2,30.12,WSW,248,0.0,0.0,52,0.00,,---,0.00,VWS V14.01,2013-09-09 01:18:00,
2013-09-08 20:23:00,86.9,67.2,30.12,WSW,248,0.0,0.0,52,0.00,,---,0.00,VWS V14.01,2013-09-09 01:23:00,
2013-09-08 20:28:00,86.9,67.2,30.12,WSW,248,0.0,0.0,52,0.00,,---,0.00,VWS V14.01,2013-09-09 01:28:00,
2013-09-08 20:33:00,86.9,67.2,30.12,WSW,248,0.0,0.0,52,0.00,,---,0.00,VWS V14.01,2013-09-09 01:33:00,
2013-09-08 20:38:00,86.9,67.2,30.12,WSW,248,0.0,0.0,52,0.00,,---,0.00,VWS V14.01,2013-09-09 01:38:00,
2013-09-08 20:43:00,86.9,67.2,30.12,WSW,248,0.0,0.0,52,0.00,,---,0.00,VWS V14.01,2013-09-09 01:43:00,
2013-09-08 20:48:00,86.9,67.2,30.12,WSW,248,0.0,0.0,52,0.00,,---,0.00,VWS V14.01,2013-09-09 01:48:00,
2013-09-08 20:53:00,86.9,67.2,30.12,WSW,248,0.0,0.0,52,0.00,,---,0.00,VWS V14.01,2013-09-09 01:53:00,
2013-09-08 20:58:00,86.9,67.2,30.12,WSW,248,0.0,0.0,52,0.00,,---,0.00,VWS V14.01,2013-09-09 01:58:00,
2013-09-08 21:03:00,86.9,67.2,30.12,WSW,248,0.0,0.0,52,0.00,,---,0.00,VWS V14.01,2013-09-09 02:03:00,
2013-09-08 21:08:00,86.9,67.2,30.12,WSW,248,0.0,0.0,52,0.00,,---,0.00,VWS V14.01,2013-09-09 02:08:00,
2013-09-08 21:13:00,86.9,67.2,30.12,WSW,248,0.0,0.0,52,0.00,,---,0.00,VWS V14.01,2013-09-09 02:13:00,
2013-09-08 21:18:00,86.9,67.2,30.12,WSW,248,0.0,0.0,52,0.00,,---,0.00,VWS V14.01,2013-09-09 02:18:00,
2013-09-08 21:23:00,86.9,67.2,30.12,WSW,248,0.0,0.0,52,0.00,,---,0.00,VWS V14.01,2013-09-09 02:23:00,
2013-09-08 21:28:00,86.9,67.2,30.12,WSW,248,0.0,0.0,52,0.00,,---,0.00,VWS V14.01,2013-09-09 02:28:00,
2013-09-08 21:33:00,86.9,67.2,30.12,WSW,248,0.0,0.0,52,0.00,,---,0.00,VWS V14.01,2013-09-09 02:33:00,
2013-09-08 21:38:00,86.9,67.2,30.12,WSW,248,0.0,0.0,52,0.00,,---,0.00,VWS V14.01,2013-09-09 02:38:00,
2013-09-08 21:43:00,86.9,67.2,30.12,WSW,248,0.0,0.0,52,0.00,,---,0.00,VWS V14.01,2013-09-09 02:43:00,
2013-09-08 21:48:00,78.3,70.8,30.12,WSW,248,0.0,0.0,78,0.00,,---,0.00,VWS V14.01,2013-09-09 02:48:00,
2013-09-08 21:53:00,78.3,70.8,30.12,WSW,248,0.0,0.0,78,0.00,,---,0.00,VWS V14.01,2013-09-09 02:53:00,
2013-09-08 21:58:00,78.1,71.0,30.12,WSW,248,0.0,0.0,79,0.00,,---,0.00,VWS V14.01,2013-09-09 02:58:00,
2013-09-08 22:03:00,78.1,71.0,30.12,WSW,248,0.0,0.0,79,0.00,,---,0.00,VWS V14.01,2013-09-09 03:03:00,
2013-09-08 22:08:00,78.1,71.0,30.12,WSW,248,0.0,0.0,79,0.00,,---,0.00,VWS V14.01,2013-09-09 03:08:00,
2013-09-08 22:12:00,78.1,71.0,30.12,WSW,248,0.0,0.0,79,0.00,,---,0.00,VWS V14.01,2013-09-09 03:12:00,
2013-09-08 22:17:00,78.1,71.0,30.12,WSW,248,0.0,0.0,79,0.00,,---,0.00,VWS V14.01,2013-09-09 03:17:00,
2013-09-08 22:22:00,77.7,71.1,30.12,WSW,248,0.0,0.0,80,0.00,,---,0.00,VWS V14.01,2013-09-09 03:22:00,
2013-09-08 22:27:00,77.5,70.9,30.12,WSW,248,0.0,0.0,80,0.00,,---,0.00,VWS V14.01,2013-09-09 03:27:00,
2013-09-08 22:32:00,77.5,70.9,30.12,WSW,248,0.0,0.0,80,0.00,,---,0.00,VWS V14.01,2013-09-09 03:32:00,
2013-09-08 22:37:00,77.5,70.9,30.12,WSW,248,0.0,0.0,80,0.00,,---,0.00,VWS V14.01,2013-09-09 03:37:00,
2013-09-08 22:42:00,77.5,70.9,30.12,WSW,248,0.0,0.0,80,0.00,,---,0.00,VWS V14.01,2013-09-09 03:42:00,
2013-09-08 22:47:00,77.5,70.9,30.12,WSW,248,0.0,0.0,80,0.00,,---,0.00,VWS V14.01,2013-09-09 03:47:00,
2013-09-08 22:52:00,77.5,70.9,30.12,WSW,248,0.0,0.0,80,0.00,,---,0.00,VWS V14.01,2013-09-09 03:52:00,
2013-09-08 22:57:00,77.5,70.9,30.12,WSW,248,0.0,0.0,80,0.00,,---,0.00,VWS V14.01,2013-09-09 03:57:00,
2013-09-08 23:01:00,77.5,70.9,30.12,WSW,248,0.0,0.0,80,0.00,,---,0.00,VWS V14.01,2013-09-09 04:01:00,
2013-09-08 23:06:00,77.5,70.9,30.12,WSW,248,0.0,0.0,80,0.00,,---,0.00,VWS V14.01,2013-09-09 04:06:00,
2013-09-08 23:11:00,77.5,70.9,30.12,WSW,248,0.0,0.0,80,0.00,,---,0.00,VWS V14.01,2013-09-09 04:11:00,
2013-09-08 23:16:00,77.5,70.9,30.12,WSW,248,0.0,0.0,80,0.00,,---,0.00,VWS V14.01,2013-09-09 04:16:00,
2013-09-08 23:21:00,77.5,70.9,30.12,WSW,248,0.0,0.0,80,0.00,,---,0.00,VWS V14.01,2013-09-09 04:21:00,
2013-09-08 23:26:00,77.5,70.9,30.12,WSW,248,0.0,0.0,80,0.00,,---,0.00,VWS V14.01,2013-09-09 04:26:00,
2013-09-08 23:31:00,77.5,70.9,30.12,WSW,248,0.0,0.0,80,0.00,,---,0.00,VWS V14.01,2013-09-09 04:31:00,
2013-09-08 23:36:00,77.5,70.9,30.12,WSW,248,0.0,0.0,80,0.00,,---,0.00,VWS V14.01,2013-09-09 04:36:00,
2013-09-08 23:41:00,77.5,70.9,30.12,WSW,248,0.0,0.0,80,0.00,,---,0.00,VWS V14.01,2013-09-09 04:41:00,
2013-09-08 23:46:00,77.5,70.9,30.12,WSW,248,0.0,0.0,80,0.00,,---,0.00,VWS V14.01,2013-09-09 04:46:00,
2013-09-08 23:51:00,77.5,70.9,30.12,WSW,248,0.0,0.0,80,0.00,,---,0.00,VWS V14.01,2013-09-09 04:51:00,
2013-09-08 23:56:00,77.5,70.9,30.12,WSW,248,0.0,0.0,80,0.00,,---,0.00,VWS V14.01,2013-09-09 04:56:00,